Weather History for Versailles, OH

Change the Weather History Date:

Thursday, May 15, 2014

  Actual Average (KDAY) Record (KDAY)
Temperature  
Mean Temperature 50 °F 61 °F  
Max Temperature 62 °F 71 °F 92 °F (1900)
Min Temperature 39 °F 51 °F 32 °F (1910)
Degree Days  
Heating Degree Days 14 6  
Month to date heating degree days 106  
Since 1 July heating degree days 5557  
Cooling Degree Days 0 2  
Month to date cooling degree days 18  
Year to date cooling degree days 28  
Moisture  
Dew Point 49 °F    
Average Humidity 91    
Maximum Humidity 100    
Minimum Humidity 81    
Precipitation  
Precipitation 0.02 in 0.15 in 1.91 in (2007)
Month to date precipitation 2.25  
Year to date precipitation 14.63  
Snow  
Snow 0.00 in 0.00 in 0.00 in ()
Month to date snowfall 0.0  
Since 1 July snowfall 23.3  
Snow Depth -    
Sea Level Pressure  
Sea Level Pressure 29.89 in    
Wind  
Wind Speed 12 mph (WSW)    
Max Wind Speed 23 mph    
Max Gust Speed 30 mph    
Visibility 10 miles    
Events Rain    
T = Trace of Precipitation, MM = Missing Value Source: NWS Daily Summary

Daily Weather History Graph

Daily Weather History Graph

Search for Another Location

Airport:

Trip Planner

Search our weather history database for the weather conditions in past years. The results will help you decide how hot, cold, wet, or windy it might be!

Date:

Astronomy

May. 15, 2014 Rise Set
Actual Time 6:22 AM EDT 8:47 PM EDT
Civil Twilight 5:51 AM EDT 9:18 PM EDT
Nautical Twilight 5:13 AM EDT 9:56 PM EDT
Astronomical Twilight 4:31 AM EDT 10:38 PM EDT
Moon 9:54 PM EDT (5/15) 7:08 AM EDT (5/15)
Length of Visible Light 15h 26m
Length of Day
14h 24m
Full, 99% of the Moon is Illuminated
May 15
Full
May 21
Last Quarter
May 28
New
Jun 5
First Quarter
Jun 13
Full

Hourly Weather History & Observations

Time (EDT) Temp. Windchill Dew Point Humidity Pressure Visibility Wind Dir Wind Speed Gust Speed Precip Events Conditions
12:15 AM 62.6 °F - 62.6 °F 100% 29.85 in 10.0 mi SSE 9.2 mph - N/A   Light Drizzle
12:35 AM 62.6 °F - 62.6 °F 100% 29.85 in 10.0 mi SSE 11.5 mph 18.4 mph N/A   Overcast
12:55 AM 62.6 °F - 62.6 °F 100% 29.85 in 10.0 mi SSE 10.4 mph 16.1 mph N/A   Overcast
1:15 AM 62.6 °F - 62.6 °F 100% 29.83 in 10.0 mi SSE 13.8 mph - N/A Rain Light Rain
1:35 AM 62.6 °F - 62.6 °F 100% 29.82 in 7.0 mi SE 13.8 mph - 0.01 in   Light Drizzle
1:55 AM 62.6 °F - 62.6 °F 100% 29.81 in 7.0 mi SSE 13.8 mph - 0.01 in   Drizzle
2:15 AM 62.6 °F - 62.6 °F 100% 29.80 in 7.0 mi SSE 19.6 mph 24.2 mph N/A Rain Light Rain
2:35 AM 62.6 °F - 62.6 °F 100% 29.79 in 10.0 mi South 16.1 mph 23.0 mph N/A   Overcast
2:55 AM 62.6 °F - 62.6 °F 100% 29.77 in 10.0 mi South 13.8 mph 21.9 mph N/A   Overcast
3:15 AM 62.6 °F - 62.6 °F 100% 29.75 in 10.0 mi South 9.2 mph - N/A   Overcast
3:35 AM 62.6 °F - 60.8 °F 94% 29.74 in 10.0 mi South 8.1 mph - N/A   Overcast
3:55 AM 62.6 °F - 60.8 °F 94% 29.74 in 10.0 mi South 10.4 mph - N/A   Overcast
4:15 AM 62.6 °F - 60.8 °F 94% 29.74 in 10.0 mi South 10.4 mph 19.6 mph N/A   Overcast
4:35 AM 62.6 °F - 60.8 °F 94% 29.73 in 10.0 mi South 10.4 mph 16.1 mph N/A   Overcast
4:55 AM 62.6 °F - 60.8 °F 94% 29.73 in 10.0 mi South 10.4 mph 17.3 mph N/A   Overcast
5:15 AM 62.6 °F - 60.8 °F 94% 29.72 in 10.0 mi South 10.4 mph 18.4 mph N/A   Overcast
5:35 AM 62.6 °F - 60.8 °F 94% 29.72 in 10.0 mi South 10.4 mph - N/A   Drizzle
6:15 AM 55.4 °F - 55.4 °F 100% 29.75 in 5.0 mi WSW 12.7 mph 20.7 mph N/A Rain Rain
6:35 AM 55.4 °F - 55.4 °F 100% 29.75 in 4.0 mi WSW 15.0 mph 23.0 mph N/A   Drizzle
6:55 AM 53.6 °F - 53.6 °F 100% 29.76 in 7.0 mi WSW 9.2 mph - N/A Rain Light Rain
7:15 AM 53.6 °F - 53.6 °F 100% 29.77 in 7.0 mi WSW 11.5 mph 21.9 mph N/A   Light Drizzle
7:35 AM 53.6 °F - 51.8 °F 94% 29.78 in 10.0 mi West 17.3 mph 23.0 mph N/A   Overcast
7:55 AM 51.8 °F - 51.8 °F 100% 29.79 in 10.0 mi WSW 16.1 mph 21.9 mph N/A   Overcast
8:15 AM 51.8 °F - 50.0 °F 94% 29.80 in 10.0 mi WSW 16.1 mph 23.0 mph N/A   Overcast
8:35 AM 51.8 °F - 50.0 °F 94% 29.81 in 10.0 mi WSW 16.1 mph 24.2 mph N/A   Overcast
8:55 AM 50.0 °F - 48.2 °F 94% 29.82 in 10.0 mi WSW 18.4 mph 24.2 mph N/A   Overcast
9:15 AM 50.0 °F - 48.2 °F 94% 29.82 in 10.0 mi WSW 19.6 mph - N/A   Overcast
9:35 AM 50.0 °F - 46.4 °F 87% 29.83 in 10.0 mi WSW 12.7 mph - N/A   Overcast
9:55 AM 50.0 °F - 46.4 °F 87% 29.83 in 10.0 mi WSW 12.7 mph - N/A   Overcast
10:15 AM 50.0 °F - 46.4 °F 87% 29.84 in 10.0 mi WSW 13.8 mph 23.0 mph N/A   Overcast
10:35 AM 50.0 °F - 46.4 °F 87% 29.84 in 10.0 mi WSW 12.7 mph 21.9 mph N/A   Overcast
10:55 AM 50.0 °F - 46.4 °F 87% 29.85 in 10.0 mi WSW 17.3 mph 21.9 mph N/A   Overcast
11:15 AM 50.0 °F - 46.4 °F 87% 29.85 in 10.0 mi WSW 18.4 mph 21.9 mph N/A   Overcast
11:35 AM 48.2 °F - 46.4 °F 93% 29.87 in 10.0 mi SW 17.3 mph 26.5 mph N/A   Overcast
11:55 AM 48.2 °F - 46.4 °F 93% 29.88 in 10.0 mi WSW 16.1 mph 24.2 mph N/A   Overcast
12:15 PM 50.0 °F - 46.4 °F 87% 29.88 in 10.0 mi SW 16.1 mph 21.9 mph N/A   Overcast
12:35 PM 50.0 °F - 46.4 °F 87% 29.89 in 10.0 mi SW 13.8 mph 21.9 mph N/A   Overcast
12:55 PM 50.0 °F - 46.4 °F 87% 29.89 in 10.0 mi SW 12.7 mph - N/A   Overcast
1:35 PM 50.0 °F - 46.4 °F 87% 29.90 in 10.0 mi SW 16.1 mph 19.6 mph N/A   Overcast
1:55 PM 51.8 °F - 46.4 °F 82% 29.91 in 10.0 mi WSW 15.0 mph 21.9 mph N/A   Overcast
2:15 PM 50.0 °F - 46.4 °F 87% 29.92 in 10.0 mi West 18.4 mph 26.5 mph N/A   Overcast
3:15 PM 50.0 °F - 44.6 °F 82% 29.93 in 10.0 mi WSW 12.7 mph 19.6 mph N/A   Overcast
3:35 PM 50.0 °F - 46.4 °F 87% 29.94 in 10.0 mi WSW 18.4 mph - 0.01 in   Overcast
3:55 PM 51.8 °F - 46.4 °F 82% 29.93 in 10.0 mi West 18.4 mph 26.5 mph 0.01 in   Overcast
4:15 PM 50.0 °F - 44.6 °F 82% 29.94 in 10.0 mi West 23.0 mph 29.9 mph N/A   Overcast
4:35 PM 50.0 °F - 44.6 °F 82% 29.95 in 10.0 mi West 16.1 mph 23.0 mph N/A   Overcast
4:55 PM 46.4 °F 39.2 °F 42.8 °F 87% 29.97 in 10.0 mi WNW 18.4 mph 24.2 mph N/A   Overcast
5:15 PM 46.4 °F 40.7 °F 42.8 °F 87% 29.98 in 10.0 mi West 12.7 mph 23.0 mph N/A   Overcast
5:35 PM 46.4 °F 40.1 °F 41.0 °F 81% 29.99 in 10.0 mi WNW 15.0 mph 23.0 mph N/A   Overcast
5:55 PM 46.4 °F 40.4 °F 41.0 °F 81% 29.99 in 10.0 mi WNW 13.8 mph 20.7 mph N/A   Overcast
6:15 PM 46.4 °F 39.5 °F 41.0 °F 81% 30.00 in 10.0 mi West 17.3 mph 23.0 mph N/A   Overcast
6:35 PM 46.4 °F 39.8 °F 41.0 °F 81% 30.00 in 10.0 mi WNW 16.1 mph 19.6 mph N/A   Overcast
6:55 PM 44.6 °F 39.2 °F 41.0 °F 87% 30.01 in 10.0 mi WNW 10.4 mph 19.6 mph N/A   Overcast
7:15 PM 44.6 °F 39.2 °F 41.0 °F 87% 30.02 in 10.0 mi WNW 10.4 mph 17.3 mph N/A   Overcast
7:35 PM 44.6 °F 37.4 °F 41.0 °F 87% 30.03 in 10.0 mi NW 16.1 mph - N/A   Overcast
7:55 PM 44.6 °F 38.1 °F 41.0 °F 87% 30.03 in 10.0 mi NW 13.8 mph 19.6 mph N/A   Overcast
8:15 PM 44.6 °F 39.2 °F 39.2 °F 81% 30.04 in 10.0 mi NW 10.4 mph - N/A   Overcast
8:35 PM 44.6 °F 39.7 °F 39.2 °F 81% 30.05 in 10.0 mi NNW 9.2 mph - N/A   Mostly Cloudy
8:55 PM 42.8 °F 38.6 °F 39.2 °F 87% 30.05 in 10.0 mi NNW 6.9 mph - N/A   Scattered Clouds
9:15 PM 42.8 °F 39.3 °F 39.2 °F 87% 30.05 in 10.0 mi NW 5.8 mph - N/A   Scattered Clouds
9:35 PM 42.8 °F - 39.2 °F 87% 30.05 in 10.0 mi Calm Calm - N/A   Clear
9:55 PM 42.8 °F - 39.2 °F 87% 30.05 in 10.0 mi Calm Calm - N/A   Clear
10:15 PM 41.0 °F - 39.2 °F 93% 30.06 in 10.0 mi Calm Calm - N/A   Clear
10:35 PM 41.0 °F - 39.2 °F 93% 30.06 in 10.0 mi Calm Calm - N/A   Clear
10:55 PM 41.0 °F - 41.0 °F 100% 30.06 in 10.0 mi Calm Calm - N/A   Clear
11:15 PM 41.0 °F - 39.2 °F 93% 30.06 in 10.0 mi Calm Calm - N/A   Clear
11:35 PM 39.2 °F - 39.2 °F 100% 30.05 in 10.0 mi Calm Calm - N/A   Clear
11:55 PM 39.2 °F - 39.2 °F 100% 30.05 in 10.0 mi Calm Calm - N/A   Clear